Powrót do katalogu

SL-16 DEB

AktywnyLEO
NORAD 22576·DEBRIS·🇷🇺 Russia

Wystrzelony Mar 26, 1993 z Baikonur Cosmodrome

Loading…

Następne Przeloty (najbliższe 24 godziny)

TLE

ŚwieżeSource: Space-Track

Epoka: Sep 14, 2026, 13:31 UTC

1 22576U 93016D   26257.56337633  .00000025  00000-0  62453-4 0  9990
2 22576  70.9947  97.5388 0198089  72.1654 319.7548 13.73604910676921

Śledź SL-16 DEB w czasie rzeczywistym z AllMySat

Download on the App Store